KC2ASA Weather Reports


Display with metric or nautical units.
time (UTC)temp
F
wind
direction
speed
MPH
gust
MPH
rain 1hr
in
rain 24hr
in
rain mn
in
humidity
%
barometer
mb
20260905093006 0 0.0 0.0 0.00 0.00 0.00 1010.9
20260905091502 0 0.0 0.0 0.00 0.00 0.00 1010.9
20260905090058 0 0.0 0.0 0.00 0.00 0.00 1010.8
20260905084556 0 0.0 0.0 0.00 0.00 0.00 1010.7
20260905083048 0 0.0 0.0 0.00 0.00 0.00 1010.8
20260905081545 0 0.0 0.0 0.00 0.00 0.00 1010.7
20260905080046 0 0.0 0.0 0.00 0.00 0.00 1010.8
20260905074536 0 0.0 0.0 0.00 0.00 0.00 1010.9
20260905073031 0 0.0 0.0 0.00 0.00 0.00 1010.8
20260905071527 0 0.0 0.0 0.00 0.00 0.00 1010.7
20260905070028 0 0.0 0.0 0.00 0.00 0.00 1010.7
20260905064519 0 0.0 0.0 0.00 0.00 0.00 1010.9
20260905063016 0 0.0 0.0 0.00 0.00 0.00 1010.9
20260905061510 0 0.0 0.0 0.00 0.00 0.00 1011.0
20260905060006 0 0.0 0.0 0.00 0.00 0.00 1011.1
20260905054502 0 0.0 0.0 0.00 0.00 0.00 1011.1
20260905053057 0 0.0 0.0 0.00 0.00 0.00 1011.2
20260905051600 0 0.0 0.0 0.00 0.00 0.00 1011.5
20260905050049 0 0.0 0.0 0.00 0.00 0.00 1011.7
20260905044546 0 0.0 0.0 0.00 0.00 0.00 1011.8
20260905043051 0 0.0 0.0 0.00 0.00 0.00 1011.8
20260905041536 0 0.0 0.0 0.00 0.00 0.00 1011.9
20260905040034 0 0.0 0.0 0.00 0.00 0.00 1011.9
20260905034532 0 0.0 0.0 0.00 0.00 0.00 1011.9
20260905033022 0 0.0 0.0 0.00 0.00 0.00 1011.9
20260905031527 0 0.0 0.0 0.00 0.00 0.00 1011.8
20260905030024 0 0.0 0.0 0.00 0.00 0.00 1011.8
20260905024509 64 207 0.0 0.0 0.00 0.00 0.00 94 1011.9
20260905023006 64 207 0.0 0.0 0.00 0.00 0.00 94 1011.9
20260905021600 64 207 0.0 0.0 0.00 0.00 0.00 94 1011.7
20260905020108 64 207 0.0 0.0 0.00 0.00 0.00 94 1011.9
20260905014554 64 207 0.0 0.0 0.00 0.00 0.00 93 1011.9
20260905013051 65 207 0.0 0.0 0.00 0.00 0.00 93 1011.9
20260905011622 65 207 0.0 0.0 0.00 0.00 0.00 93 1011.6
20260905010039 66 207 0.0 0.0 0.00 0.00 0.00 92 1011.8
20260905004534 66 207 0.0 0.0 0.00 0.00 0.00 92 1011.8
20260905003032 67 207 0.0 0.0 0.00 0.00 0.00 91 1011.6
20260905001524 68 207 0.0 0.0 0.00 0.00 0.00 90 1011.4
20260905000020 69 207 0.0 0.0 0.00 0.00 0.00 89 1011.3
20260904234519 70 207 0.0 0.0 0.00 0.00 0.00 88 1011.2
20260904233010 71 207 0.0 0.0 0.00 0.00 0.00 85 1011.1
20260904231507 72 207 0.0 0.0 0.00 0.00 0.00 83 1011.1
20260904230002 73 207 0.0 0.0 0.00 0.00 0.00 81 1011.1
20260904224558 74 207 0.0 0.0 0.00 0.00 0.00 79 1011.2
20260904223053 76 207 0.0 0.0 0.00 0.00 0.00 78 1011.1
20260904221548 77 207 0.0 0.0 0.00 0.00 0.00 74 1011.2
20260904220043 78 232 0.0 0.0 0.00 0.00 0.00 70 1011.0
20260904214539 78 77 0.0 2.0 0.00 0.00 0.00 64 1010.9
20260904213034 79 114 0.0 2.0 0.00 0.00 0.00 62 1010.7
20260904211529 80 219 0.0 2.0 0.00 0.00 0.00 62 1010.8
20260904210032 80 223 0.0 3.0 0.00 0.00 0.00 60 1010.9
20260904204524 80 75 0.0 4.0 0.00 0.00 0.00 62 1011.0
20260904203023 80 222 0.0 5.0 0.00 0.00 0.00 60 1011.1
20260904201512 80 217 0.0 2.0 0.00 0.00 0.00 61 1011.3
20260904200009 81 193 0.0 4.0 0.00 0.00 0.00 62 1011.2
20260904194503 81 107 0.0 3.0 0.00 0.00 0.00 61 1011.2
20260904193059 81 216 0.0 3.0 0.00 0.00 0.00 61 1011.2
20260904191554 81 86 1.0 4.0 0.00 0.00 0.00 61 1011.4
20260904190049 81 52 1.0 4.0 0.00 0.00 0.00 64 1011.4
20260904184545 81 64 0.0 5.0 0.00 0.00 0.00 63 1011.7
20260904183059 81 58 0.0 3.0 0.00 0.00 0.00 67 1011.8
20260904181552 81 43 0.0 3.0 0.00 0.00 0.00 65 1011.8
20260904180031 81 217 1.0 3.0 0.00 0.00 0.00 65 1011.8
20260904174528 80 22 1.0 4.0 0.00 0.00 0.00 65 1011.8
20260904173023 80 46 2.0 5.0 0.00 0.00 0.00 65 1011.8
20260904171519 79 34 0.0 3.0 0.00 0.00 0.00 69 1011.8
20260904170014 80 38 0.0 6.0 0.00 0.00 0.00 66 1011.8
20260904164510 81 61 1.0 7.0 0.00 0.00 0.00 65 1011.9
20260904163006 81 224 0.0 6.0 0.00 0.00 0.00 65 1011.9
20260904161502 80 37 2.0 6.0 0.00 0.00 0.00 68 1011.9
20260904160057 -90 58 1.0 5.0 0.00 0.00 0.00 1011.9
20260904154555 -90 40 2.0 7.0 0.00 0.00 0.00 1011.8
20260904153051 -90 71 3.0 12.0 0.00 0.00 0.00 1011.9
20260904151543 -90 87 2.0 7.0 0.00 0.00 0.00 1012.1
20260904150042 -90 51 0.0 6.0 0.00 0.00 0.00 1012.1
20260904144534 -90 79 1.0 6.0 0.00 0.00 0.00 1011.8
20260904143036 81 89 1.0 6.0 0.00 0.00 0.00 70 1011.8
20260904141529 82 119 0.0 4.0 0.00 0.00 0.00 72 1011.7
20260904140040 82 226 0.0 3.0 0.00 0.00 0.00 72 1011.7
20260904134527 81 58 2.0 3.0 0.00 0.00 0.00 70 1011.8
20260904133022 79 128 0.0 4.0 0.00 0.00 0.00 77 1011.9
20260904131521 78 34 1.0 5.0 0.00 0.00 0.00 79 1011.8
20260904130016 77 52 0.0 1.0 0.00 0.00 0.00 84 1012.0
20260904124515 75 49 0.0 2.0 0.00 0.00 0.00 86 1012.1
20260904123008 74 50 0.0 1.0 0.00 0.00 0.00 90 1012.1
20260904121503 73 43 0.0 1.0 0.00 0.00 0.00 97 1012.0
20260904114558 0 0.0 0.0 0.00 0.00 0.00 1011.7
20260904113054 0 0.0 0.0 0.00 0.00 0.00 1011.8
20260904111558 0 0.0 0.0 0.00 0.00 0.00 1011.4
20260904110045 0 0.0 0.0 0.00 0.00 0.00 1011.3
20260904104550 0 0.0 0.0 0.00 0.00 0.00 1011.3
20260904103036 0 0.0 0.0 0.00 0.00 0.00 1011.2
20260904101531 0 0.0 0.0 0.00 0.00 0.00 1011.0
20260904100031 0 0.0 0.0 0.00 0.00 0.00 1010.9
20260904094532 0 0.0 0.0 0.00 0.00 0.00 1010.8